Last 6 Hours

AM-Scott Top 8120'

15 Minute Data | America/Los_Angeles
as of 1/23/22 4:03 AM PST
Date & Time Temp (°F) RH (%) Dew Pt (°F) Wet Bulb (°F) Wind Dir (°) Wind Spd (mph) Wind Gust (mph) WindChill (°F) Daily Min Temp (°F) Daily Max Temp (°F)
1/23/22 - 0400 24.4 84 20.2 22.8 E | 93 8.8 13.5 15.7 24.0 25.0
1/23/22 - 0345 24.4 83 19.8 22.7 E | 98 10.1 20.4 14.9 24.0 25.0
1/23/22 - 0330 24.4 86 20.8 23.1 E | 98 12.2 20.3 10.6 24.0 25.0
1/23/22 - 0315 24.3 85 20.5 22.9 ESE | 102 13.5 19.6 14.7 24.0 25.0
1/23/22 - 0300 24.8 82 20.2 23.1 ESE | 102 12.1 20.0 13.6 24.0 25.0
1/23/22 - 0245 24.8 82 20.1 23.0 ESE | 110 13.0 21.5 14.3 24.0 25.0
1/23/22 - 0230 24.9 79 19.3 22.9 ESE | 116 13.3 20.1 17.8 24.0 25.0
1/23/22 - 0215 24.4 80 19.2 22.5 SE | 124 12.6 23.5 13.0 24.0 25.0
1/23/22 - 0200 24.4 76 18.1 22.2 ESE | 121 17.6 25.1 11.5 24.1 25.0
1/23/22 - 0145 24.5 78 18.5 22.4 ESE | 121 17.8 25.4 12.5 24.1 25.0
1/23/22 - 0130 24.3 78 18.5 22.2 SE | 130 10.0 20.4 11.7 24.1 25.0
1/23/22 - 0115 24.6 74 17.5 22.1 SE | 125 12.5 21.2 19.9 24.2 25.0
1/23/22 - 0100 24.2 82 19.4 22.5 SE | 132 9.5 19.7 12.8 24.2 25.0
1/23/22 - 0045 24.9 78 18.9 22.7 E | 98 11.3 18.8 14.7 24.4 25.0
1/23/22 - 0030 24.8 77 18.5 22.5 E | 85 9.0 15.1 16.0 24.4 25.0
1/23/22 - 0015 24.7 76 18.4 22.4 E | 97 12.4 21.9 13.0 24.4 25.0
1/23/22 - 0000 24.4 80 19.2 22.5 E | 86 11.7 19.9 15.5 18.4 31.4
1/22/22 - 2345 24.4 81 19.4 22.6 ESE | 109 13.0 22.1 12.3 18.4 31.4
1/22/22 - 2330 24.3 81 19.3 22.5 ESE | 108 14.9 27.4 11.8 18.4 31.4
1/22/22 - 2315 24.3 82 19.6 22.6 ESE | 109 12.9 23.0 15.9 18.4 31.4
1/22/22 - 2300 24.4 82 19.6 22.7 ESE | 121 13.0 23.6 12.0 18.4 31.4
1/22/22 - 2245 24.9 78 18.9 22.7 ESE | 105 14.1 29.0 12.9 18.4 31.4
1/22/22 - 2230 24.3 78 18.5 22.2 ESE | 112 15.0 26.5 16.6 18.4 31.4
1/22/22 - 2215 24.6 77 18.5 22.4 ESE | 114 16.2 24.5 9.7 18.4 31.4
Max 24.9 86 20.8 23.1 - 17.8 29.0 19.9 24.4 31.4
Avg 24.5 80 19.2 22.6 - 12.8 21.8 13.9 - -
Min 24.2 74 17.5 22.1 - 8.8 13.5 9.7 18.4 25.0